Istrana, Italy

7:51 PM CEST on September 28, 2016 (GMT +0200)
Istrana Mil

Weather History for LIPS - May, 2013

Change the Weather History Date:

Sunday, May 5, 2013

  Actual Average Record
Temperature  
Mean Temperature 68 °F -  
Max Temperature 76 °F 70 °F 86 °F (2003)
Min Temperature 59 °F 52 °F 48 °F (2002)
Cooling Degree Days 2    
Growing Degree Days 18 (Base 50)    
Moisture  
Dew Point 57 °F    
Average Humidity 72    
Maximum Humidity 94    
Minimum Humidity 36    
Precipitation  
Precipitation 0.12 in - - ()
Sea Level Pressure  
Sea Level Pressure 30.02 in    
Wind  
Wind Speed 3 mph ()    
Max Wind Speed 13 mph    
Max Gust Speed -    
Visibility 7.4 miles    
Events Rain , Thunderstorm    
Averages and records for this station are not official NWS values.
T = Trace of Precipitation, MM = Missing Value Source: Averaged Metar Reports

Daily Weather History Graph

Daily Weather History Graph

Search for Another Location

Airport or City:

Trip Planner

Search our weather history database for the weather conditions in past years. The results will help you decide how hot, cold, wet, or windy it might be!

Date:

Astronomy

May. 05, 2013 Rise Set
Actual Time 5:53 AM CEST 8:23 PM CEST
Civil Twilight 5:20 AM CEST 8:57 PM CEST
Nautical Twilight 4:38 AM CEST 9:39 PM CEST
Astronomical Twilight 3:50 AM CEST 10:27 PM CEST
Moon 3:28 AM CEST (5/5) 3:53 PM CEST (5/5)
Length of Visible Light 15h 37m
Length of Day
14h 30m
Waning Crescent, 20% of the Moon is Illuminated
May 5
Waning Crescent
May 10
New
May 18
First Quarter
May 25
Full
May 31
Last Quarter

Hourly Weather History & Observations

Time (CEST) Temp. Dew Point Humidity Pressure Visibility Wind Dir Wind Speed Gust Speed Precip Events Conditions
12:55 AM 60.8 °F 59.0 °F 94% 30.01 in - North - - N/A   Unknown
1:55 AM 60.8 °F 57.2 °F 88% 30.01 in - North - - N/A   Partly Cloudy
2:00 AM 60 °F 58 °F 90% 30.01 in 4 mi Calm Calm - -   Mist
3:55 AM 60.8 °F 59.0 °F 94% 29.98 in - North - - N/A   Partly Cloudy
4:55 AM 62.6 °F 59.0 °F 88% 29.98 in - North - - N/A   Unknown
5:00 AM 62 °F 59 °F 88% 30.00 in 4 mi Calm Calm - -   Mist
5:55 AM 59.0 °F 57.2 °F 94% 30.01 in - North - - N/A   Partly Cloudy
6:55 AM 60.8 °F 55.4 °F 82% 30.01 in - North - - N/A   Mostly Cloudy
7:55 AM 62.6 °F 55.4 °F 77% 30.04 in - North - - N/A   Mostly Cloudy
8:00 AM 63 °F 55 °F 69% 30.04 in 9 mi Calm Calm - -   Mostly Cloudy
8:55 AM 62.6 °F 55.4 °F 77% 30.04 in - North - - N/A Rain Light Rain
9:55 AM 68.0 °F 59.0 °F 73% 30.04 in - North - - N/A   Mostly Cloudy
10:55 AM 71.6 °F 55.4 °F 57% 30.04 in - North - - N/A   Mostly Cloudy
11:00 AM 72 °F 56 °F 48% 30.04 in 9 mi NE 12.7 mph - -   Partly Cloudy
11:55 AM 73.4 °F 51.8 °F 47% 30.04 in - North - - N/A   Scattered Clouds
12:55 PM 75.2 °F 53.6 °F 47% 30.04 in - North - - N/A   Scattered Clouds
1:55 PM 75.2 °F 53.6 °F 47% 30.04 in - North - - N/A   Scattered Clouds
2:00 PM 76 °F 54 °F 36% 30.03 in 9 mi East 10.4 mph - -   Partly Cloudy
2:55 PM 75.2 °F 55.4 °F 50% 30.04 in - North - - N/A   Mostly Cloudy
3:55 PM 73.4 °F 59.0 °F 61% 30.04 in - North - - N/A   Mostly Cloudy
4:55 PM 73.4 °F 57.2 °F 57% 29.98 in - North - - N/A   Mostly Cloudy
5:00 PM 73 °F 57 °F 48% 30.00 in 9 mi ESE 11.5 mph - -   Mostly Cloudy
5:55 PM 69.8 °F 55.4 °F 60% 30.01 in - North - - N/A   Mostly Cloudy
6:55 PM 69.8 °F 59.0 °F 68% 30.01 in - North - - N/A Rain Light Rain
7:14 PM 69.8 °F 59.0 °F 68% 29.98 in - North - - N/A Rain , Thunderstorm Light Thunderstorms and Rain
7:55 PM 64.4 °F 60.8 °F 88% 30.01 in - North - - N/A Rain Light Rain
8:00 PM 64 °F 60 °F 83% 30.03 in 8 mi East 4.6 mph - - Rain Light Rain
8:55 PM 62.6 °F 60.8 °F 94% 30.04 in - North - - N/A   Scattered Clouds
9:55 PM 62.6 °F 55.4 °F 77% 30.04 in - North - - N/A   Scattered Clouds
10:55 PM 62.6 °F 57.2 °F 82% 30.04 in - North - - N/A   Scattered Clouds
11:00 PM 62 °F 58 °F 81% 30.05 in 7 mi NNW 5.8 mph - -   Partly Cloudy
11:55 PM 62.6 °F 57.2 °F 82% 30.04 in - North - - N/A   Mostly Cloudy